Погода в Подсинем

Россия / Республика Хакасия     53°40′14″N   91°32′46″E
темп.,
°C
ветер,
м/с
пор.,
м/с
влажн.,
%
обл.,
%
осадки,
мм/ч
давл.,
гПа
погр.,
м
22 октября, пт
пт2201:00+3вюв117197 0.0 101810
04:00+2юв117727 0.0 101910
07:00+2юв117860 0.0 101910
10:00+5юв225737 0.0 1019138
13:00+10юв224099 0.0 1018393
16:00+11в113977 0.0 1017189
19:00+7с225182 0.0 101810
22:00+6зсз2253100 0.0 102110
23 октября, сб
сб2301:00+6сз1464100 0.0 1025232
04:00+3ююз4888100 4.7 1029598
07:00+3юз511695 5.1 1030385
10:00+5юз7106292 0.0 1030836
13:00+7юз684775 0.0 10281271
16:00+8ююз47442 0.0 10261204
19:00+3ююв337485 0.0 102635
22:00+2ююв2283100 0.0 102523
24 октября, вс
вс2401:00+3ю2468100 0.0 102475
04:00+5ююз41257100 0.1 1023445
07:00+5юз71369100 0.1 1024604
10:00+7юз7116660 0.0 1024999
13:00+10юз10145149 0.0 10221299
16:00+9зюз8145864 0.0 10231170
19:00+6зюз81678100 0.0 1025583
22:00+6зюз7148186 0.0 1026504
25 октября, пн
пн2501:00+6зюз51280100 0.0 1027387
04:00+6юз3881100 0.0 1026182
07:00+5ююз228191 0.0 102623
10:00+8ю267393 0.0 1026268
13:00+12юз585469 0.0 1023713
16:00+12ююз47555 0.0 1021429
19:00+8ююв22698 0.0 102111
22:00+7ююв227545 0.0 102111
26 октября, вт
вт2601:00+6ююв117823 0.0 102011
04:00+5юв118033 0.0 102110
07:00+4юв1182100 0.0 102110
10:00+6ююв116998 0.0 102197
13:00+9вюв1254100 0.0 1019390
16:00+10всв235578 0.0 1016215
19:00+6всв2270100 0.0 101511
22:00+5в1174100 0.0 101310